Date String (YYYY-MM-DD hh:mm:ss) UTC,Instrument flags,Ambient pressure (hPa),Sample flow (lpm),Bypass flow (lpm),Sample temperature (°C),Ambient temperature (°C),ASC tube jacket temperature (°C),LED temperature (°C),Box temperature (°C),Sample RH (%),Span deviation,Mass concentration (μg/m³),Mass concentration (μg/m³),Mass concentration (μg/m³)
DateTimeUTC,F1_M11,P_M11,Q1_M11,Q2_M11,T1_M11,T2_M11,T3_M11,T4_M11,T5_M11,U1_M11,ZSPAN_M11,X0_M11,X2_M11,X1_M11
2022-06-10 07:00:00,,0828.2,5.00,0.00,29.3,28.4,00.0,38.2,31.3,25.7,0000.0,0017.71,0004.52,0002.80
2022-06-10 07:01:00,,0828.3,5.01,0.00,29.3,28.4,00.0,38.2,31.3,25.7,0000.0,0017.83,0004.56,0002.81
2022-06-10 07:02:00,,0828.2,5.01,0.00,29.4,28.5,00.0,38.2,31.3,25.6,0000.0,0017.80,0004.55,0002.82
2022-06-10 07:03:00,,0828.2,5.00,0.00,29.4,28.5,00.0,38.2,31.3,25.5,0000.0,0017.25,0004.56,0002.84
2022-06-10 07:04:00,,0828.2,5.00,0.00,29.4,28.5,00.0,38.2,31.3,25.4,0000.0,0018.11,0004.60,0002.84
2022-06-10 07:05:00,,0828.2,5.00,0.00,29.4,28.5,00.0,38.3,31.3,25.4,0000.0,0017.37,0004.55,0002.86
2022-06-10 07:06:00,,0828.2,5.00,0.00,29.4,28.6,00.0,38.3,31.4,25.5,0000.0,0016.04,0004.51,0002.87
2022-06-10 07:07:00,,0828.2,5.00,0.00,29.5,28.6,00.0,38.3,31.4,25.5,0000.0,0015.14,0004.49,0002.87
2022-06-10 07:08:00,,0828.2,5.00,0.00,29.5,28.6,00.0,38.3,31.4,25.4,0000.0,0014.76,0004.51,0002.85
2022-06-10 07:09:00,,0828.2,4.99,0.00,29.5,28.6,00.0,38.3,31.4,25.4,0000.0,0014.58,0004.55,0002.86
2022-06-10 07:10:00,,0828.3,5.01,0.00,29.5,28.6,00.0,38.3,31.4,25.2,0000.0,0014.04,0004.58,0002.86
2022-06-10 07:11:00,,0828.3,4.99,0.00,29.5,28.7,00.0,38.3,31.4,25.2,0000.0,0014.29,0004.59,0002.87
2022-06-10 07:12:00,,0828.3,5.01,0.00,29.5,28.7,00.0,38.3,31.4,25.2,0000.0,0015.50,0004.61,0002.88
2022-06-10 07:13:00,,0828.2,4.99,0.00,29.5,28.7,00.0,38.4,31.5,25.1,0000.0,0016.11,0004.68,0002.91
2022-06-10 07:14:00,,0828.3,5.00,0.00,29.6,28.7,00.0,38.4,31.5,25.1,0000.0,0015.50,0004.68,0002.92
2022-06-10 07:15:00,,0828.3,5.00,0.00,29.6,28.7,00.0,38.4,31.5,25.0,0000.0,0015.46,0004.71,0002.94
2022-06-10 07:16:00,,0828.3,5.00,0.00,29.6,28.7,00.0,38.4,31.5,24.8,0000.0,0016.09,0004.77,0002.96
2022-06-10 07:17:00,,0828.3,5.01,0.00,29.6,28.8,00.0,38.4,31.5,24.8,0000.0,0015.83,0004.82,0002.98
2022-06-10 07:18:00,,0828.3,5.00,0.00,29.6,28.8,00.0,38.4,31.5,24.8,0000.0,0015.59,0004.77,0002.98
2022-06-10 07:19:00,,0828.3,5.00,0.00,29.6,28.8,00.0,38.5,31.5,24.8,0000.0,0016.22,0004.75,0003.00
2022-06-10 07:20:00,,0828.3,5.00,0.00,29.6,28.8,00.0,38.5,31.6,24.8,0000.0,0016.88,0004.81,0003.06
2022-06-10 07:21:00,,0828.3,5.00,0.00,29.7,28.8,00.0,38.5,31.6,24.7,0000.0,0016.33,0004.81,0003.09
2022-06-10 07:22:00,,0828.4,4.99,0.00,29.7,28.8,00.0,38.5,31.6,24.7,0000.0,0016.21,0004.84,0003.12
2022-06-10 07:23:00,,0828.3,5.00,0.00,29.7,28.8,00.0,38.5,31.6,24.8,0000.0,0015.76,0004.84,0003.12
2022-06-10 07:24:00,,0828.3,5.00,0.00,29.7,28.8,00.0,38.5,31.6,24.7,0000.0,0015.68,0004.87,0003.13
2022-06-10 07:25:00,,0828.3,5.01,0.00,29.7,28.9,00.0,38.5,31.6,24.7,0000.0,0016.35,0004.94,0003.14
2022-06-10 07:26:00,,0828.3,5.00,0.00,29.7,28.9,00.0,38.6,31.6,24.7,0000.0,0016.19,0004.93,0003.15
2022-06-10 07:27:00,,0828.3,5.00,0.00,29.7,28.9,00.0,38.6,31.7,24.6,0000.0,0016.28,0004.93,0003.14
2022-06-10 07:28:00,,0828.3,4.98,0.00,29.7,28.9,00.0,38.6,31.7,24.5,0000.0,0016.90,0004.92,0003.16
2022-06-10 07:29:00,,0828.2,5.00,0.00,29.8,28.9,00.0,38.6,31.7,24.5,0000.0,0017.86,0005.03,0003.17
2022-06-10 07:30:00,,0828.2,5.01,0.00,29.8,28.9,00.0,38.6,31.7,24.5,0000.0,0017.73,0005.08,0003.18
2022-06-10 07:31:00,,0828.3,5.00,0.00,29.8,28.7,00.0,38.6,31.6,24.4,0000.0,0016.82,0005.01,0003.18
2022-06-10 07:32:00,,0828.2,4.99,0.00,29.7,27.8,00.0,38.5,31.4,24.4,0000.0,0016.55,0004.93,0003.18
2022-06-10 07:33:00,,0828.2,5.01,0.00,29.6,27.3,00.0,38.5,31.3,24.4,0000.0,0016.25,0004.90,0003.18
2022-06-10 07:34:00,,0828.2,4.99,0.00,29.5,27.2,00.0,38.4,31.1,24.6,0000.0,0015.45,0004.89,0003.17
2022-06-10 07:35:00,,0828.2,5.00,0.00,29.4,27.2,00.0,38.4,31.1,24.8,0000.0,0015.30,0004.80,0003.16
2022-06-10 07:36:00,,0828.2,5.01,0.00,29.4,27.3,00.0,38.4,31.1,24.9,0000.0,0015.19,0004.69,0003.16
2022-06-10 07:37:00,,0828.1,5.00,0.00,29.3,27.4,00.0,38.4,31.1,25.0,0000.0,0015.07,0004.71,0003.15
2022-06-10 07:38:00,,0828.1,4.98,0.00,29.3,27.6,00.0,38.4,31.1,25.0,0000.0,0014.52,0004.70,0003.15
2022-06-10 07:39:00,,0828.1,4.99,0.00,29.3,27.7,00.0,38.3,31.1,25.0,0000.0,0013.82,0004.67,0003.14
2022-06-10 07:40:00,,0828.3,5.00,0.00,29.3,27.8,00.0,38.3,31.1,25.0,0000.0,0013.41,0004.64,0003.13
2022-06-10 07:41:00,,0828.2,5.00,0.00,29.3,27.9,00.0,38.3,31.1,25.0,0000.0,0013.44,0004.62,0003.12
2022-06-10 07:42:00,,0828.1,5.01,0.00,29.3,28.0,00.0,38.3,31.2,25.0,0000.0,0014.30,0004.65,0003.11
2022-06-10 07:43:00,,0828.1,5.00,0.00,29.3,28.1,00.0,38.3,31.2,25.0,0000.0,0014.49,0004.74,0003.11
2022-06-10 07:44:00,,0828.2,4.99,0.00,29.3,28.1,00.0,38.3,31.2,24.9,0000.0,0014.65,0004.82,0003.12
2022-06-10 07:45:00,,0828.1,4.99,0.00,29.3,28.2,00.0,38.3,31.2,24.8,0000.0,0014.72,0004.89,0003.14
2022-06-10 07:46:00,,0828.1,5.00,0.00,29.3,28.2,00.0,38.3,31.2,24.8,0000.0,0014.60,0004.97,0003.16
2022-06-10 07:47:00,,0828.1,5.01,0.00,29.3,28.3,00.0,38.3,31.2,24.8,0000.0,0014.39,0005.06,0003.16
2022-06-10 07:48:00,,0828.1,4.99,0.00,29.4,28.3,00.0,38.3,31.3,24.8,0000.0,0014.25,0005.07,0003.18
2022-06-10 07:49:00,,0828.1,5.00,0.00,29.4,28.3,00.0,38.3,31.3,24.8,0000.0,0014.15,0005.08,0003.19
2022-06-10 07:50:00,,0828.1,4.99,0.00,29.4,28.4,00.0,38.3,31.3,24.8,0000.0,0013.96,0005.06,0003.19
2022-06-10 07:51:00,,0828.1,5.01,0.00,29.4,28.4,00.0,38.3,31.3,24.8,0000.0,0014.24,0005.05,0003.20
2022-06-10 07:52:00,,0828.1,5.00,0.00,29.4,28.4,00.0,38.3,31.3,24.8,0000.0,0014.15,0005.06,0003.20
2022-06-10 07:53:00,,0828.1,5.00,0.00,29.4,28.5,00.0,38.3,31.3,24.7,0000.0,0013.71,0005.06,0003.21
2022-06-10 07:54:00,,0828.1,5.00,0.00,29.4,28.5,00.0,38.3,31.4,24.7,0000.0,0014.90,0005.03,0003.21
2022-06-10 07:55:00,,0828.1,5.00,0.00,29.5,28.5,00.0,38.3,31.4,24.6,0000.0,0015.47,0004.98,0003.21
2022-06-10 07:56:00,,0828.1,5.00,0.00,29.5,28.5,00.0,38.3,31.4,24.7,0000.0,0015.46,0004.93,0003.20
2022-06-10 07:57:00,,0828.1,5.01,0.00,29.5,28.5,00.0,38.4,31.4,24.7,0000.0,0015.12,0004.91,0003.20
2022-06-10 07:58:00,,0828.1,5.00,0.00,29.5,28.6,00.0,38.4,31.4,24.6,0000.0,0014.66,0004.90,0003.20
2022-06-10 07:59:00,,0828.1,5.00,0.00,29.5,28.6,00.0,38.4,31.4,24.7,0000.0,0014.20,0004.89,0003.20
